Location: Trani
(41.2830°N, 16.4170°E)
Time: 03:40:23
(UTC+02:00)

ISS - Visible Passes

Search period start: 24 October 2020 00:00
Search period end: 02 November 2020 23:00
Orbit: 417 x 420 km, 51.6° (Epoch: 23 October)

Date Brightness Start Highest point End Pass type
(mag) Time Alt. Az. Time Alt. Az. Time Alt. Az.
24 Oct -3.6 06:04:38 17° SW 06:07:07 71° SE 06:10:28 10° ENE visible
25 Oct -2.6 04:19:30 40° SE 04:19:30 40° SE 04:22:37 10° ENE visible
26 Oct -0.3 03:34:11 12° E 03:34:11 12° E 03:34:33 10° E visible
26 Oct -3.3 05:07:10 28° W 05:08:26 43° NNW 05:11:40 10° NE visible
27 Oct -2.6 04:21:42 39° NE 04:21:42 39° NE 04:23:59 10° NE visible
28 Oct -0.3 03:36:09 11° ENE 03:36:09 11° ENE 03:36:14 10° ENE visible
28 Oct -2.2 05:09:06 21° NW 05:09:57 23° NNW 05:12:42 10° NE visible
29 Oct -1.7 04:23:27 21° NNE 04:23:27 21° NNE 04:25:04 10° NE visible
30 Oct -1.7 05:10:42 15° NNW 05:11:37 16° N 05:13:47 10° NNE visible
31 Oct -1.3 04:24:56 15° NNE 04:24:56 15° NNE 04:26:04 10° NNE visible
01 Nov -1.4 05:12:06 12° NNW 05:13:21 14° N 05:15:14 10° NE visible
02 Nov -1.1 04:26:17 13° NNE 04:26:17 13° NNE 04:27:17 10° NNE visible
